QPF
0.00 0.00 0.00 0.01 0.01 0.02 0.01 0.02 0.04 0.06 0.07 0.06 0.05 0.06 0.12 0.18 0.17 0.15 0.15 0.15 0.12 0.08 0.06 0.07 0.07 0.09 0.09 0.09 0.09 0.08 0.10 0.11 0.10 0.08 0.07 0.05 0.04 0.03 0.02 0.02 0.02 0.02 0.02
0.00 0.00 0.00 0.01 0.02 0.02 0.01 0.02 0.03 0.05 0.06 0.06 0.05 0.07 0.10 0.15 0.16 0.15 0.16 0.16 0.14 0.10 0.07 0.07 0.08 0.09 0.09 0.08 0.10 0.08 0.07 0.08 0.09 0.08 0.07 0.06 0.07 0.05 0.03 0.02 0.02 0.02 0.02
0.00 0.00 0.00 0.01 0.01 0.02 0.02 0.01 0.02 0.04 0.07 0.07 0.07 0.09 0.11 0.13 0.14 0.15 0.17 0.18 0.16 0.13 0.10 0.08 0.08 0.09 0.10 0.08 0.08 0.09 0.07 0.07 0.07 0.07 0.06 0.05 0.05 0.04 0.03 0.02 0.02 0.01 0.02
0.00 0.00 0.00 0.01 0.01 0.01 0.02 0.02 0.02 0.04 0.07 0.08 0.09 0.09 0.10 0.12 0.12 0.11 0.13 0.18 0.18 0.15 0.12 0.11 0.10 0.10 0.11 0.10 0.06 0.06 0.07 0.07 0.07 0.07 0.06 0.04 0.03 0.03 0.02 0.02 0.02 0.02 0.02
0.00 0.00 0.00 0.01 0.01 0.02 0.03 0.03 0.02 0.04 0.06 0.07 0.10 0.09 0.10 0.11 0.11 0.09 0.10 0.13 0.14 0.16 0.12 0.12 0.12 0.10 0.10 0.10 0.09 0.06 0.06 0.06 0.06 0.07 0.07 0.07 0.05 0.04 0.03 0.03 0.02 0.02 0.02
0.01 0.00 0.00 0.01 0.02 0.03 0.04 0.02 0.02 0.04 0.06 0.06 0.09 0.10 0.11 0.11 0.12 0.11 0.10 0.11 0.11 0.12 0.12 0.10 0.12 0.11 0.09 0.10 0.09 0.08 0.06 0.05 0.05 0.05 0.06 0.07 0.07 0.05 0.04 0.03 0.03 0.03 0.03
0.01 0.01 0.01 0.01 0.02 0.03 0.06 0.03 0.02 0.03 0.05 0.05 0.06 0.08 0.09 0.11 0.13 0.13 0.12 0.11 0.11 0.11 0.10 0.09 0.11 0.11 0.08 0.08 0.09 0.08 0.08 0.07 0.06 0.04 0.04 0.04 0.06 0.05 0.04 0.04 0.04 0.05 0.05
0.00 0.01 0.01 0.02 0.03 0.03 0.05 0.04 0.02 0.03 0.04 0.04 0.04 0.06 0.08 0.09 0.12 0.13 0.12 0.11 0.10 0.10 0.10 0.08 0.09 0.08 0.07 0.07 0.07 0.07 0.07 0.08 0.07 0.06 0.05 0.04 0.04 0.05 0.05 0.05 0.06 0.07 0.07
0.00 0.01 0.01 0.02 0.03 0.04 0.04 0.05 0.04 0.03 0.03 0.04 0.03 0.04 0.07 0.09 0.09 0.11 0.13 0.11 0.08 0.08 0.09 0.10 0.10 0.10 0.07 0.06 0.06 0.08 0.07 0.06 0.06 0.07 0.06 0.05 0.05 0.04 0.03 0.04 0.05 0.07 0.08
0.01 0.00 0.00 0.01 0.03 0.04 0.05 0.06 0.05 0.03 0.03 0.03 0.02 0.04 0.06 0.08 0.09 0.09 0.11 0.12 0.10 0.07 0.07 0.09 0.10 0.10 0.09 0.07 0.06 0.06 0.07 0.07 0.07 0.06 0.06 0.05 0.05 0.05 0.04 0.03 0.04 0.06 0.08
0.02 0.01 0.01 0.01 0.02 0.03 0.04 0.04 0.04 0.04 0.04 0.04 0.03 0.04 0.05 0.07 0.08 0.09 0.08 0.08 0.10 0.10 0.08 0.08 0.09 0.11 0.09 0.08 0.07 0.07 0.07 0.07 0.07 0.07 0.06 0.05 0.04 0.05 0.05 0.04 0.04 0.05 0.06
0.02 0.02 0.02 0.02 0.02 0.01 0.02 0.03 0.04 0.04 0.05 0.06 0.05 0.05 0.05 0.06 0.07 0.09 0.09 0.07 0.07 0.08 0.09 0.09 0.08 0.09 0.09 0.09 0.08 0.07 0.07 0.07 0.07 0.07 0.06 0.06 0.05 0.05 0.05 0.06 0.05 0.05 0.06
0.02 0.02 0.02 0.01 0.01 0.02 0.02 0.02 0.03 0.05 0.06 0.07 0.07 0.07 0.06 0.05 0.07 0.09 0.11 0.10 0.08 0.09 0.10 0.11 0.10 0.09 0.08 0.08 0.07 0.08 0.08 0.08 0.08 0.09 0.09 0.08 0.07 0.07 0.06 0.06 0.06 0.06 0.06
0.03 0.03 0.03 0.02 0.02 0.02 0.01 0.01 0.03 0.05 0.06 0.08 0.09 0.08 0.07 0.05 0.06 0.08 0.10 0.09 0.09 0.10 0.11 0.11 0.12 0.10 0.09 0.08 0.07 0.08 0.08 0.09 0.09 0.09 0.09 0.09 0.08 0.07 0.07 0.08 0.08 0.07 0.06
0.02 0.02 0.02 0.02 0.01 0.01 0.01 0.01 0.02 0.03 0.05 0.08 0.08 0.07 0.06 0.06 0.06 0.08 0.10 0.09 0.09 0.10 0.12 0.12 0.12 0.11 0.09 0.09 0.09 0.09 0.10 0.10 0.10 0.10 0.10 0.10 0.10 0.07 0.07 0.07 0.08 0.08 0.07
0.01 0.01 0.01 0.01 0.01 0.01 0.01 0.01 0.02 0.02 0.02 0.05 0.06 0.05 0.05 0.05 0.07 0.08 0.09 0.10 0.09 0.11 0.13 0.12 0.11 0.10 0.09 0.09 0.09 0.09 0.09 0.11 0.12 0.10 0.09 0.10 0.12 0.12 0.11 0.09 0.08 0.08 0.07
0.00 0.00 0.00 0.01 0.01 0.01 0.01 0.01 0.01 0.01 0.02 0.02 0.04 0.04 0.04 0.05 0.05 0.07 0.09 0.09 0.10 0.10 0.13 0.15 0.13 0.11 0.09 0.09 0.09 0.08 0.07 0.09 0.11 0.12 0.11 0.10 0.11 0.14 0.13 0.12 0.11 0.10 0.09
0.01 0.01 0.01 0.01 0.00 0.00 0.01 0.01 0.01 0.01 0.02 0.02 0.02 0.02 0.03 0.04 0.05 0.06 0.08 0.09 0.09 0.10 0.11 0.14 0.15 0.13 0.10 0.08 0.08 0.08 0.07 0.08 0.12 0.14 0.13 0.12 0.11 0.12 0.12 0.11 0.10 0.10 0.09
0.01 0.01 0.01 0.01 0.00 0.00 0.01 0.01 0.02 0.02 0.02 0.02 0.02 0.02 0.02 0.02 0.04 0.08 0.10 0.10 0.11 0.12 0.12 0.12 0.13 0.13 0.11 0.09 0.08 0.09 0.09 0.10 0.12 0.12 0.12 0.12 0.11 0.12 0.12 0.11 0.10 0.09 0.08
0.02 0.01 0.01 0.01 0.01 0.01 0.02 0.02 0.03 0.03 0.03 0.02 0.02 0.02 0.02 0.03 0.04 0.07 0.08 0.09 0.12 0.15 0.16 0.14 0.12 0.13 0.12 0.11 0.09 0.08 0.09 0.11 0.12 0.13 0.14 0.13 0.12 0.12 0.11 0.10 0.09 0.09 0.07
0.03 0.02 0.01 0.01 0.01 0.02 0.03 0.04 0.04 0.03 0.02 0.02 0.02 0.02 0.02 0.03 0.04 0.06 0.07 0.09 0.11 0.12 0.14 0.15 0.12 0.11 0.11 0.12 0.11 0.09 0.08 0.09 0.10 0.12 0.13 0.12 0.13 0.13 0.12 0.11 0.09 0.08 0.06
0.06 0.04 0.03 0.03 0.03 0.04 0.05 0.04 0.04 0.03 0.02 0.02 0.02 0.02 0.03 0.03 0.04 0.05 0.07 0.08 0.10 0.12 0.13 0.14 0.13 0.12 0.11 0.11 0.10 0.10 0.10 0.09 0.09 0.10 0.09 0.09 0.11 0.11 0.11 0.11 0.11 0.11 0.10
0.06 0.06 0.05 0.06 0.05 0.05 0.05 0.04 0.03 0.03 0.03 0.03 0.03 0.03 0.03 0.03 0.04 0.06 0.06 0.08 0.09 0.10 0.12 0.12 0.12 0.13 0.11 0.10 0.10 0.09 0.09 0.10 0.10 0.09 0.09 0.10 0.11 0.11 0.10 0.11 0.12 0.11 0.09
0.04 0.04 0.06 0.06 0.06 0.06 0.06 0.04 0.03 0.03 0.03 0.04 0.04 0.04 0.04 0.04 0.04 0.05 0.07 0.09 0.09 0.08 0.08 0.09 0.11 0.12 0.12 0.10 0.10 0.09 0.10 0.11 0.11 0.10 0.11 0.12 0.14 0.14 0.13 0.13 0.12 0.10 0.09
0.04 0.04 0.05 0.05 0.06 0.07 0.06 0.04 0.03 0.03 0.04 0.04 0.05 0.05 0.04 0.05 0.04 0.04 0.05 0.07 0.08 0.07 0.07 0.07 0.09 0.11 0.12 0.11 0.12 0.12 0.11 0.11 0.10 0.09 0.12 0.13 0.14 0.14 0.13 0.12 0.11 0.09 0.09
0.03 0.04 0.04 0.04 0.05 0.05 0.05 0.04 0.04 0.04 0.04 0.04 0.04 0.04 0.04 0.04 0.04 0.03 0.03 0.04 0.05 0.05 0.05 0.07 0.09 0.09 0.11 0.11 0.10 0.10 0.09 0.09 0.09 0.08 0.09 0.10 0.11 0.11 0.10 0.10 0.10 0.09 0.08
MSLP
1009.31 1009.75 1010.10 1010.36 1010.54 1010.68 1010.82 1010.99 1011.21 1011.47 1011.75 1012.01 1012.23 1012.38 1012.45 1012.44 1012.36 1012.25 1012.11 1011.97 1011.84 1011.70 1011.56 1011.40 1011.20 1010.96 1010.66 1010.31 1009.91 1009.45 1008.95 1008.41 1007.83 1007.23 1006.61 1006.02 1005.46 1004.97 1004.59 1004.33 1004.21 1004.24 1004.38
1009.18 1009.63 1009.96 1010.18 1010.31 1010.40 1010.50 1010.65 1010.86 1011.12 1011.43 1011.72 1011.97 1012.14 1012.22 1012.21 1012.13 1012.00 1011.85 1011.71 1011.59 1011.49 1011.39 1011.28 1011.14 1010.95 1010.70 1010.39 1010.02 1009.58 1009.09 1008.54 1007.95 1007.33 1006.69 1006.04 1005.41 1004.83 1004.34 1003.97 1003.74 1003.65 1003.70
1009.02 1009.50 1009.83 1010.03 1010.12 1010.17 1010.22 1010.33 1010.51 1010.77 1011.08 1011.38 1011.64 1011.83 1011.92 1011.92 1011.83 1011.70 1011.55 1011.42 1011.31 1011.22 1011.15 1011.06 1010.95 1010.78 1010.55 1010.26 1009.90 1009.49 1009.02 1008.50 1007.94 1007.33 1006.70 1006.03 1005.37 1004.74 1004.17 1003.69 1003.34 1003.14 1003.09
1008.81 1009.31 1009.66 1009.86 1009.93 1009.94 1009.95 1010.02 1010.17 1010.40 1010.68 1010.98 1011.24 1011.43 1011.53 1011.54 1011.47 1011.35 1011.21 1011.09 1010.98 1010.90 1010.83 1010.75 1010.63 1010.46 1010.23 1009.95 1009.60 1009.21 1008.78 1008.31 1007.79 1007.23 1006.63 1005.99 1005.32 1004.65 1004.02 1003.47 1003.02 1002.71 1002.55
1008.50 1009.05 1009.44 1009.65 1009.71 1009.70 1009.68 1009.70 1009.80 1009.99 1010.23 1010.51 1010.76 1010.95 1011.06 1011.08 1011.03 1010.93 1010.82 1010.71 1010.62 1010.53 1010.45 1010.35 1010.21 1010.03 1009.79 1009.50 1009.17 1008.80 1008.41 1007.99 1007.54 1007.04 1006.49 1005.88 1005.22 1004.54 1003.87 1003.24 1002.71 1002.30 1002.04
1008.09 1008.71 1009.14 1009.37 1009.45 1009.42 1009.37 1009.34 1009.39 1009.52 1009.73 1009.96 1010.19 1010.37 1010.49 1010.53 1010.51 1010.45 1010.37 1010.28 1010.19 1010.11 1010.01 1009.89 1009.73 1009.52 1009.27 1008.97 1008.65 1008.31 1007.96 1007.59 1007.19 1006.75 1006.24 1005.66 1005.02 1004.33 1003.62 1002.95 1002.35 1001.86 1001.52
1007.61 1008.28 1008.75 1009.02 1009.10 1009.08 1009.00 1008.93 1008.93 1009.01 1009.15 1009.34 1009.54 1009.71 1009.84 1009.91 1009.92 1009.89 1009.84 1009.78 1009.71 1009.62 1009.52 1009.38 1009.20 1008.97 1008.70 1008.41 1008.10 1007.78 1007.46 1007.12 1006.75 1006.34 1005.85 1005.29 1004.64 1003.94 1003.21 1002.50 1001.86 1001.33 1000.94
1007.09 1007.78 1008.28 1008.57 1008.68 1008.65 1008.55 1008.46 1008.41 1008.43 1008.53 1008.68 1008.84 1009.00 1009.13 1009.21 1009.26 1009.26 1009.24 1009.21 1009.15 1009.07 1008.97 1008.82 1008.63 1008.40 1008.13 1007.83 1007.53 1007.21 1006.90 1006.57 1006.20 1005.77 1005.27 1004.68 1004.01 1003.28 1002.53 1001.80 1001.15 1000.62 1000.23
1006.54 1007.24 1007.75 1008.05 1008.16 1008.14 1008.03 1007.92 1007.84 1007.83 1007.88 1007.98 1008.12 1008.26 1008.39 1008.49 1008.55 1008.58 1008.59 1008.57 1008.54 1008.47 1008.37 1008.22 1008.03 1007.80 1007.53 1007.24 1006.93 1006.61 1006.27 1005.90 1005.48 1004.99 1004.42 1003.77 1003.04 1002.27 1001.50 1000.78 1000.16 999.67 999.34
1006.01 1006.68 1007.17 1007.46 1007.58 1007.56 1007.46 1007.34 1007.24 1007.21 1007.23 1007.30 1007.42 1007.54 1007.66 1007.75 1007.83 1007.88 1007.90 1007.90 1007.88 1007.82 1007.73 1007.59 1007.41 1007.19 1006.92 1006.62 1006.29 1005.93 1005.53 1005.08 1004.56 1003.96 1003.27 1002.52 1001.71 1000.88 1000.10 999.40 998.84 998.44 998.22
1005.51 1006.11 1006.56 1006.83 1006.95 1006.94 1006.86 1006.75 1006.66 1006.61 1006.62 1006.67 1006.76 1006.86 1006.96 1007.05 1007.12 1007.17 1007.20 1007.21 1007.20 1007.15 1007.07 1006.94 1006.77 1006.55 1006.28 1005.96 1005.60 1005.17 1004.67 1004.09 1003.42 1002.66 1001.82 1000.92 1000.01 999.12 998.32 997.67 997.20 996.93 996.88
1005.02 1005.54 1005.94 1006.19 1006.31 1006.32 1006.27 1006.18 1006.11 1006.07 1006.07 1006.11 1006.17 1006.25 1006.33 1006.40 1006.46 1006.50 1006.52 1006.53 1006.51 1006.47 1006.40 1006.28 1006.12 1005.90 1005.61 1005.26 1004.83 1004.31 1003.69 1002.95 1002.10 1001.16 1000.13 999.07 998.04 997.08 996.28 995.68 995.32 995.22 995.35
1004.56 1004.99 1005.34 1005.57 1005.70 1005.73 1005.72 1005.67 1005.63 1005.60 1005.60 1005.62 1005.66 1005.71 1005.75 1005.79 1005.83 1005.85 1005.86 1005.86 1005.85 1005.81 1005.74 1005.63 1005.47 1005.24 1004.93 1004.54 1004.03 1003.40 1002.63 1001.72 1000.68 999.53 998.32 997.10 995.94 994.92 994.11 993.58 993.34 993.40 993.74
1004.11 1004.48 1004.78 1005.00 1005.14 1005.21 1005.23 1005.23 1005.21 1005.19 1005.18 1005.19 1005.19 1005.20 1005.20 1005.21 1005.21 1005.21 1005.21 1005.21 1005.19 1005.16 1005.10 1004.99 1004.83 1004.59 1004.26 1003.81 1003.22 1002.48 1001.57 1000.49 999.27 997.93 996.54 995.17 993.90 992.82 992.02 991.54 991.41 991.63 992.15
1003.70 1004.01 1004.28 1004.50 1004.65 1004.75 1004.81 1004.83 1004.83 1004.81 1004.78 1004.75 1004.71 1004.67 1004.64 1004.60 1004.58 1004.56 1004.55 1004.55 1004.54 1004.52 1004.47 1004.37 1004.21 1003.96 1003.61 1003.11 1002.45 1001.61 1000.57 999.35 997.97 996.48 994.95 993.46 992.10 990.98 990.18 989.75 989.71 990.06 990.74
1003.32 1003.60 1003.85 1004.06 1004.23 1004.35 1004.42 1004.45 1004.44 1004.40 1004.34 1004.26 1004.17 1004.08 1003.99 1003.93 1003.88 1003.86 1003.85 1003.86 1003.87 1003.87 1003.85 1003.77 1003.62 1003.37 1002.99 1002.46 1001.75 1000.84 999.71 998.39 996.90 995.31 993.68 992.11 990.70 989.55 988.76 988.37 988.40 988.84 989.62
1003.01 1003.25 1003.48 1003.68 1003.84 1003.96 1004.02 1004.03 1003.99 1003.90 1003.78 1003.64 1003.49 1003.35 1003.23 1003.14 1003.09 1003.07 1003.09 1003.13 1003.18 1003.22 1003.22 1003.17 1003.04 1002.80 1002.43 1001.88 1001.15 1000.20 999.03 997.66 996.12 994.47 992.80 991.21 989.78 988.64 987.86 987.50 987.58 988.06 988.91
1002.74 1002.95 1003.15 1003.31 1003.44 1003.52 1003.54 1003.50 1003.40 1003.25 1003.07 1002.86 1002.66 1002.47 1002.33 1002.23 1002.19 1002.21 1002.27 1002.35 1002.45 1002.54 1002.59 1002.58 1002.48 1002.27 1001.91 1001.37 1000.64 999.70 998.53 997.16 995.63 994.00 992.35 990.77 989.38 988.26 987.52 987.18 987.28 987.78 988.64
1002.49 1002.64 1002.79 1002.90 1002.97 1002.99 1002.94 1002.83 1002.66 1002.44 1002.18 1001.92 1001.67 1001.46 1001.31 1001.24 1001.23 1001.30 1001.41 1001.56 1001.72 1001.87 1001.97 1002.00 1001.94 1001.75 1001.42 1000.91 1000.21 999.30 998.18 996.87 995.40 993.83 992.25 990.74 989.41 988.35 987.65 987.35 987.45 987.95 988.79
1002.19 1002.28 1002.35 1002.39 1002.39 1002.32 1002.20 1002.01 1001.76 1001.47 1001.16 1000.86 1000.60 1000.39 1000.26 1000.23 1000.27 1000.40 1000.58 1000.79 1001.01 1001.21 1001.36 1001.43 1001.40 1001.25 1000.95 1000.48 999.83 998.98 997.93 996.70 995.33 993.87 992.40 991.00 989.76 988.78 988.14 987.87 987.99 988.48 989.28
1001.81 1001.82 1001.80 1001.76 1001.67 1001.52 1001.32 1001.06 1000.76 1000.43 1000.09 999.78 999.53 999.35 999.27 999.29 999.40 999.59 999.83 1000.10 1000.37 1000.60 1000.78 1000.88 1000.87 1000.75 1000.48 1000.06 999.46 998.69 997.73 996.61 995.35 994.02 992.67 991.40 990.28 989.39 988.82 988.60 988.74 989.22 990.00
1001.28 1001.21 1001.12 1001.00 1000.83 1000.62 1000.36 1000.06 999.73 999.38 999.06 998.77 998.56 998.44 998.41 998.49 998.67 998.92 999.21 999.52 999.81 1000.06 1000.25 1000.36 1000.36 1000.25 1000.01 999.62 999.08 998.38 997.52 996.50 995.37 994.17 992.96 991.82 990.82 990.04 989.55 989.38 989.55 990.04 990.80
1000.62 1000.48 1000.33 1000.15 999.93 999.69 999.40 999.09 998.76 998.44 998.16 997.93 997.78 997.72 997.77 997.91 998.14 998.42 998.74 999.05 999.35 999.59 999.77 999.86 999.85 999.74 999.52 999.16 998.68 998.05 997.27 996.36 995.35 994.28 993.19 992.17 991.29 990.61 990.19 990.09 990.29 990.80 991.56
999.85 999.68 999.49 999.28 999.05 998.80 998.52 998.23 997.94 997.68 997.45 997.30 997.22 997.23 997.34 997.53 997.79 998.09 998.40 998.70 998.96 999.17 999.31 999.37 999.35 999.23 999.02 998.69 998.25 997.68 996.99 996.17 995.26 994.30 993.33 992.42 991.63 991.03 990.70 990.64 990.89 991.43 992.20
999.08 998.89 998.70 998.49 998.27 998.04 997.79 997.55 997.32 997.12 996.97 996.89 996.88 996.95 997.10 997.32 997.58 997.86 998.14 998.40 998.61 998.77 998.86 998.89 998.84 998.72 998.51 998.21 997.81 997.31 996.68 995.95 995.13 994.25 993.37 992.55 991.84 991.31 991.04 991.03 991.32 991.88 992.68
998.41 998.23 998.05 997.87 997.67 997.47 997.27 997.08 996.91 996.77 996.68 996.66 996.70 996.80 996.97 997.18 997.42 997.66 997.89 998.09 998.25 998.35 998.40 998.39 998.32 998.20 998.01 997.75 997.39 996.94 996.38 995.72 994.97 994.17 993.36 992.60 991.95 991.48 991.24 991.28 991.59 992.18 993.00
Thickness
5621 5621 5618 5616 5614 5612 5610 5609 5608 5607 5606 5605 5604 5605 5607 5611 5614 5617 5620 5623 5624 5625 5627 5628 5629 5631 5633 5634 5636 5637 5637 5638 5638 5637 5639 5643 5646 5649 5651 5653 5653 5654 5655
5610 5609 5607 5604 5602 5600 5599 5598 5597 5596 5595 5593 5593 5594 5596 5599 5602 5606 5609 5612 5613 5614 5617 5618 5619 5620 5622 5623 5624 5626 5626 5627 5628 5627 5626 5629 5632 5638 5644 5645 5646 5647 5648
5599 5598 5596 5593 5591 5589 5589 5589 5587 5586 5584 5583 5582 5583 5585 5588 5590 5594 5597 5601 5603 5604 5606 5607 5608 5609 5611 5612 5613 5614 5616 5617 5618 5619 5617 5618 5623 5627 5631 5635 5638 5639 5640
5590 5588 5586 5583 5581 5580 5580 5579 5577 5576 5575 5574 5572 5573 5576 5578 5583 5585 5588 5591 5593 5594 5595 5596 5598 5599 5600 5601 5602 5605 5606 5606 5607 5608 5610 5613 5617 5616 5619 5623 5627 5629 5631
5581 5579 5577 5575 5573 5572 5571 5569 5568 5567 5566 5566 5565 5566 5568 5571 5574 5576 5578 5580 5582 5583 5585 5587 5588 5590 5591 5592 5593 5595 5596 5597 5598 5599 5601 5602 5606 5608 5608 5611 5614 5617 5622
5572 5570 5568 5567 5564 5563 5561 5561 5560 5558 5558 5558 5558 5558 5560 5562 5564 5566 5568 5570 5572 5574 5576 5578 5579 5580 5582 5583 5584 5586 5587 5588 5590 5590 5593 5594 5596 5599 5600 5602 5605 5608 5612
5562 5559 5558 5557 5555 5553 5552 5552 5551 5551 5550 5550 5550 5550 5551 5553 5554 5556 5558 5560 5562 5565 5567 5569 5569 5571 5573 5575 5576 5577 5579 5580 5582 5583 5585 5588 5590 5593 5594 5594 5596 5598 5602
5553 5551 5550 5549 5547 5545 5544 5543 5542 5542 5542 5541 5541 5542 5542 5543 5545 5547 5549 5552 5554 5556 5558 5561 5561 5563 5565 5566 5568 5569 5571 5573 5574 5576 5578 5580 5583 5584 5586 5587 5587 5587 5590
5545 5543 5542 5541 5539 5537 5536 5534 5533 5533 5532 5532 5532 5533 5534 5535 5537 5539 5541 5544 5546 5547 5549 5551 5553 5555 5557 5559 5560 5562 5564 5565 5567 5569 5571 5573 5576 5577 5579 5581 5581 5580 5581
5537 5535 5533 5532 5530 5529 5528 5527 5525 5524 5524 5524 5524 5526 5527 5528 5529 5531 5533 5535 5537 5538 5540 5543 5544 5547 5549 5551 5553 5555 5557 5558 5561 5562 5564 5567 5569 5571 5572 5574 5575 5576 5576
5526 5525 5524 5523 5521 5520 5518 5517 5517 5516 5515 5515 5515 5516 5518 5520 5521 5523 5526 5527 5529 5530 5532 5534 5536 5539 5542 5544 5546 5549 5551 5552 5554 5556 5559 5561 5563 5564 5565 5567 5569 5570 5570
5516 5515 5514 5512 5511 5510 5510 5509 5508 5507 5507 5507 5507 5509 5510 5512 5514 5516 5518 5520 5522 5523 5525 5526 5529 5532 5535 5537 5539 5541 5544 5546 5549 5551 5553 5554 5556 5558 5559 5560 5562 5563 5565
5507 5506 5504 5502 5501 5501 5500 5500 5499 5498 5498 5498 5499 5500 5502 5504 5506 5509 5510 5512 5514 5515 5518 5520 5523 5525 5528 5530 5533 5535 5537 5540 5543 5545 5547 5549 5550 5552 5553 5554 5555 5557 5558
5498 5496 5493 5492 5492 5491 5490 5491 5490 5490 5489 5490 5491 5492 5493 5496 5499 5501 5502 5504 5506 5508 5511 5513 5516 5519 5521 5524 5527 5529 5530 5533 5536 5539 5542 5543 5545 5548 5548 5549 5550 5550 5550
5488 5486 5483 5482 5481 5480 5480 5481 5480 5481 5481 5481 5482 5483 5485 5488 5490 5493 5494 5496 5498 5501 5503 5505 5508 5511 5513 5517 5520 5522 5525 5527 5530 5532 5535 5538 5540 5543 5544 5545 5545 5544 5543
5477 5476 5474 5472 5471 5470 5470 5470 5470 5471 5471 5471 5472 5474 5476 5478 5481 5483 5486 5488 5491 5493 5495 5498 5501 5503 5506 5511 5515 5517 5518 5521 5523 5525 5529 5532 5534 5536 5538 5539 5540 5540 5539
5466 5464 5462 5460 5459 5459 5459 5459 5460 5461 5461 5462 5464 5465 5467 5469 5472 5475 5477 5480 5483 5486 5489 5491 5494 5497 5500 5504 5508 5510 5511 5514 5517 5520 5522 5525 5527 5529 5531 5532 5533 5534 5534
5454 5452 5450 5449 5449 5450 5450 5449 5449 5449 5450 5452 5453 5455 5457 5460 5463 5466 5469 5473 5477 5480 5483 5485 5488 5491 5495 5499 5501 5504 5507 5509 5511 5514 5516 5518 5520 5523 5524 5525 5525 5525 5526
5441 5440 5439 5438 5438 5439 5440 5440 5440 5439 5440 5441 5442 5445 5448 5451 5454 5458 5462 5466 5470 5474 5477 5480 5484 5486 5490 5493 5495 5498 5501 5502 5504 5506 5509 5511 5514 5517 5518 5518 5517 5517 5516
5431 5430 5429 5429 5428 5429 5429 5430 5431 5430 5431 5432 5434 5437 5440 5443 5447 5451 5455 5460 5463 5467 5471 5475 5478 5481 5483 5486 5489 5491 5494 5495 5496 5499 5502 5505 5508 5510 5510 5511 5511 5510 5508
5423 5423 5421 5420 5419 5420 5420 5420 5422 5422 5424 5425 5427 5430 5433 5436 5440 5445 5449 5453 5457 5460 5464 5468 5472 5474 5475 5477 5481 5484 5486 5487 5489 5491 5495 5498 5501 5502 5503 5505 5504 5504 5501
5414 5414 5412 5411 5412 5411 5411 5412 5413 5415 5417 5419 5421 5423 5426 5431 5436 5439 5443 5447 5450 5453 5456 5459 5462 5465 5467 5469 5472 5476 5478 5481 5482 5485 5489 5491 5493 5495 5496 5497 5497 5495 5493
5405 5405 5405 5405 5405 5404 5404 5405 5407 5409 5411 5413 5415 5418 5422 5425 5430 5434 5437 5440 5443 5445 5448 5450 5453 5456 5459 5461 5465 5468 5471 5474 5476 5479 5482 5484 5486 5488 5488 5488 5488 5487 5485
5396 5397 5397 5398 5398 5398 5399 5400 5402 5404 5406 5407 5409 5413 5416 5420 5425 5429 5431 5433 5435 5437 5439 5441 5444 5448 5451 5454 5458 5461 5465 5466 5468 5471 5473 5476 5478 5479 5480 5480 5479 5478 5477
5388 5388 5388 5390 5391 5392 5393 5395 5396 5398 5400 5402 5404 5408 5411 5415 5418 5421 5423 5425 5427 5430 5432 5434 5437 5440 5444 5449 5453 5456 5459 5460 5462 5464 5466 5467 5469 5470 5470 5470 5469 5468 5467
5379 5379 5380 5382 5384 5386 5388 5389 5390 5392 5393 5397 5399 5402 5406 5409 5412 5414 5416 5419 5420 5424 5426 5428 5431 5435 5439 5444 5448 5451 5453 5455 5457 5459 5459 5459 5460 5461 5462 5462 5460 5459 5458